WJA007 MMMX-CYVR

Flight info

Callsign WJA007
Flight time N/A
Altitude 32000
Route MMMX/05L 1832N09908W ALOMA UT135 AXABA/N0460F340 J13 BECON RUTER J86 BAVPE CORKR Q35 NEERO/N0450F360 Q35 IMB J523 SEA PAE GRIZZ9
Aircraft B738/M-SDE2E3FGHIRWXY/LB1

Departure

Time N/A
Airport Mexico City Benito Juárez International Airport (MMMX)

Arrival

Time 2026-05-08 04:22
Airport Vancouver International Airport (CYVR)
Time Latitude Longitude Altitude Speed Heading
2026-05-08 04:04 48.20810 -122.36124 19315 ft 335 kts 346°
2026-05-08 04:05 48.29192 -122.38581 18098 ft 332 kts 346°
2026-05-08 04:05 48.31475 -122.39249 17640 ft 335 kts 347°
2026-05-08 04:05 48.33753 -122.39914 17311 ft 333 kts 347°
2026-05-08 04:05 48.36019 -122.40577 16971 ft 331 kts 347°
2026-05-08 04:06 48.38274 -122.41237 16647 ft 329 kts 347°
2026-05-08 04:06 48.40523 -122.41897 16327 ft 328 kts 347°
2026-05-08 04:06 48.42726 -122.42543 16007 ft 326 kts 347°
2026-05-08 04:06 48.44948 -122.43196 15689 ft 325 kts 347°
2026-05-08 04:07 48.47158 -122.43845 15372 ft 323 kts 347°
2026-05-08 04:07 48.49364 -122.44494 15066 ft 322 kts 347°
2026-05-08 04:07 48.51561 -122.45141 14751 ft 321 kts 347°
2026-05-08 04:07 48.53749 -122.45787 14441 ft 320 kts 347°
2026-05-08 04:08 48.55929 -122.46430 14136 ft 318 kts 347°
2026-05-08 04:08 48.58104 -122.47073 13821 ft 318 kts 347°
2026-05-08 04:08 48.60270 -122.47714 13458 ft 317 kts 347°
2026-05-08 04:08 48.62429 -122.48353 13118 ft 316 kts 348°
2026-05-08 04:09 48.64579 -122.48990 12788 ft 314 kts 348°
2026-05-08 04:09 48.66720 -122.49624 12474 ft 313 kts 348°
2026-05-08 04:09 48.68850 -122.50256 12160 ft 311 kts 348°
2026-05-08 04:09 48.70871 -122.51242 11987 ft 302 kts 327°
2026-05-08 04:10 48.72438 -122.53287 11765 ft 297 kts 308°
2026-05-08 04:10 48.73729 -122.55739 11543 ft 299 kts 306°
2026-05-08 04:10 48.74997 -122.58247 11295 ft 301 kts 306°
2026-05-08 04:10 48.76272 -122.60782 11038 ft 302 kts 306°
2026-05-08 04:11 48.77546 -122.63304 10718 ft 303 kts 306°
2026-05-08 04:11 48.78843 -122.65862 10232 ft 308 kts 306°
2026-05-08 04:11 48.80206 -122.68399 9743 ft 313 kts 315°
2026-05-08 04:11 48.82077 -122.70116 9147 ft 321 kts 342°
2026-05-08 04:12 48.84268 -122.70906 8575 ft 325 kts 348°
2026-05-08 04:12 48.86488 -122.71618 7980 ft 328 kts 348°
2026-05-08 04:12 48.88735 -122.72361 7391 ft 333 kts 347°
2026-05-08 04:12 48.91003 -122.73145 6816 ft 337 kts 347°
2026-05-08 04:13 48.93291 -122.73964 6212 ft 336 kts 346°
2026-05-08 04:13 48.95531 -122.74784 5685 ft 327 kts 346°
2026-05-08 04:13 48.97712 -122.75591 5174 ft 318 kts 346°
2026-05-08 04:13 48.99840 -122.76383 4692 ft 310 kts 346°
2026-05-08 04:14 49.01880 -122.77145 4230 ft 302 kts 346°
2026-05-08 04:14 49.03919 -122.77906 4056 ft 292 kts 346°
2026-05-08 04:14 49.05828 -122.78620 4016 ft 280 kts 346°
2026-05-08 04:14 49.07705 -122.79077 3975 ft 268 kts
2026-05-08 04:15 49.09547 -122.78924 3725 ft 266 kts
2026-05-08 04:15 49.11402 -122.78676 3338 ft 269 kts
2026-05-08 04:15 49.13270 -122.78413 3038 ft 266 kts
2026-05-08 04:15 49.15045 -122.78158 3004 ft 247 kts
2026-05-08 04:16 49.16686 -122.77919 2992 ft 230 kts
2026-05-08 04:16 49.18238 -122.77822 2997 ft 222 kts 349°
2026-05-08 04:16 49.19533 -122.78930 3015 ft 218 kts 307°
2026-05-08 04:16 49.20007 -122.81072 3046 ft 217 kts 264°
2026-05-08 04:17 49.19562 -122.83229 3029 ft 211 kts 245°
2026-05-08 04:17 49.18984 -122.85230 3011 ft 200 kts 245°
2026-05-08 04:17 49.18432 -122.87151 3004 ft 195 kts 246°
2026-05-08 04:17 49.17892 -122.89015 3006 ft 188 kts 245°
2026-05-08 04:18 49.17382 -122.90813 3000 ft 182 kts 250°
2026-05-08 04:18 49.17352 -122.92696 3006 ft 180 kts 286°
2026-05-08 04:18 49.17645 -122.94623 2800 ft 190 kts 278°
2026-05-08 04:18 49.17849 -122.96595 2553 ft 186 kts 278°
2026-05-08 04:19 49.18060 -122.98527 2312 ft 182 kts 278°
2026-05-08 04:19 49.18270 -123.00398 2062 ft 173 kts 278°
2026-05-08 04:19 49.18475 -123.02195 1848 ft 172 kts 277°
2026-05-08 04:19 49.18679 -123.04014 1604 ft 174 kts 278°
2026-05-08 04:20 49.18886 -123.05829 1398 ft 171 kts 277°
2026-05-08 04:20 49.19087 -123.07594 1119 ft 163 kts 276°
2026-05-08 04:20 49.19277 -123.09255 904 ft 156 kts 277°
2026-05-08 04:20 49.19460 -123.10861 716 ft 157 kts 277°
2026-05-08 04:21 49.19647 -123.12519 506 ft 160 kts 278°
2026-05-08 04:21 49.19840 -123.14190 295 ft 160 kts 279°
2026-05-08 04:21 49.20034 -123.15889 63 ft 158 kts 279°
2026-05-08 04:21 49.20212 -123.17413 24 ft 126 kts 280°
2026-05-08 04:22 49.20313 -123.18327 24 ft 33 kts 270°
2026-05-08 04:22 49.20251 -123.18694 24 ft 32 kts 250°
2026-05-08 04:22 49.20212 -123.18844 25 ft 11 kts 237°
2026-05-08 04:22 49.20158 -123.18813 24 ft 11 kts 106°
2026-05-08 04:23 49.20145 -123.18698 24 ft 11 kts 99°
2026-05-08 04:23 49.20132 -123.18586 24 ft 11 kts 99°
2026-05-08 04:23 49.20091 -123.18506 24 ft 10 kts 172°
2026-05-08 04:23 49.20022 -123.18520 26 ft 10 kts 190°
2026-05-08 04:24 49.19951 -123.18539 25 ft 12 kts 190°
2026-05-08 04:24 49.19852 -123.18565 26 ft 17 kts 189°
2026-05-08 04:24 49.19746 -123.18615 25 ft 16 kts 216°
2026-05-08 04:24 49.19649 -123.18690 27 ft 16 kts 190°
2026-05-08 04:25 49.19544 -123.18718 25 ft 15 kts 190°
2026-05-08 04:25 49.19443 -123.18735 25 ft 14 kts 167°
2026-05-08 04:25 49.19352 -123.18694 24 ft 14 kts 190°
2026-05-08 04:25 49.19261 -123.18720 26 ft 13 kts 189°
2026-05-08 04:26 49.19175 -123.18708 27 ft 13 kts 147°
2026-05-08 04:26 49.19150 -123.18595 24 ft 13 kts 62°
2026-05-08 04:26 49.19124 -123.18487 24 ft 12 kts 137°
2026-05-08 04:26 49.19113 -123.18367 25 ft 12 kts 74°
2026-05-08 04:27 49.19118 -123.18243 24 ft 12 kts 98°
2026-05-08 04:27 49.19109 -123.18131 26 ft 9 kts 77°
2026-05-08 04:27 49.19153 -123.18104 26 ft 7 kts
2026-05-08 04:27 49.19169 -123.18101 26 ft 0 kts
2026-05-08 04:28 49.19170 -123.18101 26 ft 0 kts
2026-05-08 04:28 49.19171 -123.18101 26 ft 0 kts
2026-05-08 04:30 49.19170 -123.18101 26 ft 0 kts